Powrót do katalogu

STARLINK-31977

AktywnyŁącznośćVLEO
NORAD 59892·PAYLOAD·🇺🇸 United States

Wystrzelony May 28, 2024 z Cape Canaveral Space Force Station

Loading…

Następne Przeloty (najbliższe 24 godziny)

TLE

ŚwieżeSource: CelesTrak SupGP

Epoka: Sep 14, 2026, 22:04 UTC

1 59892C 24100H   26257.91993056 -.00034489  00000+0 -12494-2 0  2572
2 59892  42.9991 129.4933 0001280 270.5954 346.3260 15.27590807    12

Śledź STARLINK-31977 w czasie rzeczywistym z AllMySat

Download on the App Store